CHOLLIMA-1 R/B, 58401

Orbit data source: Space-Track

CHOLLIMA-1 R/B, 58401 is space debris in SSO originally from a launch on Tue, 21 Nov 2023 UTC launched from the Yunsong, Dprk (YUN). Debris objects in space refer to the collection of defunct objects orbiting the Earth. Examples of debris include non-operational satellites, rocket bodies, and fragments generated from explosions, collisions, or faulty payload assembly.

Loading next visibility...
Identifier
58401, 2023-179B
Orbit
SSO
Country
Flag of UnknownUnknown / NKOR
Related business
Manufacturer
Choson
Mission
Spacecraft
Bus & Motor
Unknown
Mass
~50 kg wet, ~50 kg dry
Launch date (UTC)
2023-11-21 (2 years ago)
Launch vehicle
Unknown
Launch site
Yunsong, Dprk (YUN)
Object type
Payload
Rocket body
Debris
Shape & HBR
Cyl, 4.0 m
Radar Cross Section
17.530 m², Large (>1 m²)

Expand to show TLE details & history
Last TLE update: 10 hours ago

TLE from 10 hours ago
0 CHOLLIMA-1 R/B
1 58401U 23179B   26036.68710877  .00041427  00000-0  61004-3 0  9993
2 58401  97.3221 299.9537 0014957 283.4528  76.5059 15.55188230124014
Epoch: 2026-02-05T16:29Z
TLE epoch observation values (Epoch: 2026-02-05T16:29:26.197Z)
Latitude
-0.00007°
Longitude
-83.24121°
Altitude
402.393 km
Speed
7.67 km/s
True Right ascension
19h 59m 48s
True Declination
0° 00' 00"
Sunlit
Object was in daylight at epoch
Visualization orbit readout
Latitude
Unknown
Longitude
Unknown
Altitude
Unknown
Speed
Unknown
Apparent Right ascension
Unknown
Apparent Declination
Unknown
Sunlit
N/A
Visualization observer readout
Local Sidereal Time
04:21:32
Azimuth
Unknown
Elevation
Unknown
Doppler factor
Unknown
Orbital elements
Apogee altitude
408.657 km
Perigee altitude
388.385 km
Semi-major axis
6,776.658 km
Eccentricity
0.0015
Inclination
97.3221°
RAAN
299.9537°
Arg. of periapsis
283.4528°
True anomaly
76.67264°
Mean anomaly
76.5059°
Eccentric anomaly
76.58926°
Mean motion
3.89063 °/min
Orbital period
92.53 mins
BSTAR
0.00061004
Loading maneuver chart data...
Computing Atmospheric mass density...
Loading historical data...
Loading historical data...
Loading historical data...
Loading historical data...
Loading historical data...
Loading historical data...
Loading historical data...
Other satellites on launch #179 in the year 2023 (2023-11-21 UTC)

Documentation

Showing up to 5 results
|